Location: Unspecified
(33.6682°S, 0.0000°E)
Time: 02:17:47
(UTC+00:00)

Tiros 1 despin weight - Pass Details

Date: 21 June 2019
Orbit: 594 x 642 km, 48.2° (Epoch: 16 July)

Event Time Altitude Azimuth Distance (km) Brightness Sun altitude
Rises 13:15:54 0° 252° (WSW) 2,950 ? 30.2°
Reaches altitude 10° 13:19:06 10° 229° (SW) 2,050 ? 30.0°
Maximum altitude 13:21:59 16° 191° (SSW) 1,704 ? 29.8°
Drops below altitude 10° 13:24:52 10° 154° (SSE) 2,059 ? 29.6°
Sets 13:28:06 0° 131° (SE) 2,971 ? 29.3°
